sat.trackr.live / text

‹ back to catalog

STARLINK-31879

NORAD 59937 · 2024-106R

PAYLOAD ACTIVE UNKNOWN

§ Identity

Operator
Country
US
Launch date
2024-06-01
Launch site
AFETR
Launch vehicle
Mass (kg)
RCS (m²)

Purposes: comms

External: N2YO · Heavens-Above · Gunter

§ Orbital elements

Epoch: 2026-09-21T10:19:19.947936Z

Period
94.27 min
Inclination
43.0022°
Eccentricity
0.0000984
Mean motion
15.27575598 rev/d
Perigee alt
482.4 km
Apogee alt
483.7 km
Semi-major
6,861.2 km
B*
1.1963e-5
RAAN
307.5211°
Arg perigee
277.7742°
Mean anomaly
82.2998°
Rev number
13,050

§ Raw data

STARLINK-318791 59937U 24106R   26264.43009199  .00000067  00000+0  11963-4 0  99972 59937  43.0022 307.5211 0000984 277.7742  82.2998 15.27575598130503

JSON: /api/v1/satellites/59937 · /tle

For live sub-satellite position, see the globe view (requires WebGL).

§ Visibility from observer

Set your observer location to see the next 7 days of passes ≥ 10°. The values pass through the URL so the page stays shareable.

No JS? Fill the form by hand. The geolocation button needs JavaScript.